#timestamp,LO_Frequency,Hit,StdDev 
1513688415.6,286047003.8,N
1513688435.4,286047003.7,N
1513688455.2,286047001.7,N
1513688475.1,286047004.1,N
1513688476.0,286047004.1,N
1513688495.8,286047002.1,N
1513688515.7,286047002.4,N
1513688535.5,286046999.8,N
1513688555.3,286047000.3,N
1513688575.2,286047002.0,N
1513688595.0,286047000.1,N
1513688595.9,286047000.1,N
1513688615.7,286047000.5,N
1513688635.6,286047002.3,N
1513688655.4,286047000.5,N
1513688675.3,286046999.9,N
1513688695.1,286047002.1,N
1513688696.0,286047002.1,N
1513688715.8,286047001.4,N
1513688735.7,286047002.0,N
1513688755.5,286047001.8,N
1513688775.4,286047004.3,N
1513688795.2,286047001.3,N
1513688815.0,286047003.6,N
1513688816.0,286047003.6,N
1513688835.8,286047004.1,N
1513688855.6,286047004.1,N
1513688875.5,286047003.9,N
1513688895.3,286047003.5,N
1513688915.2,286047003.1,N
1513688935.9,286047003.1,N
1513688955.7,286047003.1,N
1513688975.6,286047004.2,N
1513688995.4,286047003.1,N
1513689015.2,286047003.9,N
1513689035.1,286047004.0,N
1513689036.0,286047004.0,N
1513689055.8,286047003.3,N
1513689075.7,286047003.2,N
1513689095.5,286047003.9,N
1513689115.3,286047001.4,N
1513689135.2,286047004.0,Y
1513689155.0,286047000.3,P
1513689155.9,286047000.3,N
1513689175.8,286046998.1,N
1513689195.6,286047001.1,N
1513689215.4,286047001.2,N
1513689235.3,286047000.7,N
1513689255.1,286046998.6,N
1513689275.9,286047001.1,N
1513689295.7,286047000.8,N
1513689315.5,286047000.7,N
1513689335.4,286047001.1,N
1513689355.2,286046998.7,N
1513689375.1,286047000.3,N
1513689376.0,286047000.3,N
1513689395.8,286046999.9,N
1513689415.6,286047000.6,N
1513689435.5,286047000.2,N
1513689455.3,286047000.0,N
1513689475.1,286046999.8,N
1513689495.9,286047000.6,N
1513689515.7,286047000.6,N
1513689535.6,286047000.5,N
1513689555.4,286047000.0,N
1513689575.2,286046998.5,N
1513689595.1,286047000.9,N
1513689596.0,286047000.9,N
1513689615.8,286046998.7,N
1513689635.7,286046998.1,N
1513689655.5,286046998.1,N
1513689675.3,286047000.7,N
1513689695.2,286047000.3,N
1513689715.0,286047000.2,N
1513689715.9,286047000.2,N
1513689735.8,286047000.2,N
1513689755.6,286047000.3,N
1513689775.4,286047000.7,N
1513689795.3,286046999.3,N
1513689815.1,286047000.9,N
1513689835.9,286047001.0,N
1513689855.7,286047000.9,N
1513689875.5,286047000.3,N
1513689895.4,286046999.7,N
1513689915.2,286047000.4,N
1513689935.0,286046999.7,N
1513689935.9,286046999.7,N
1513689955.8,286047002.3,N
1513689975.6,286047000.0,N
1513689995.5,286047001.0,N
1513690015.3,286047000.4,N
1513690035.1,286047000.8,N
1513690055.9,286047000.4,N
1513690075.7,286046998.1,N
1513690095.6,286046998.5,N
1513690115.4,286047001.2,N
1513690135.2,286047001.2,N
1513690155.1,286047000.9,N
1513690156.0,286047000.9,N
1513690175.8,286047000.0,N
1513690195.7,286047001.0,N
1513690215.5,286047002.8,Y
1513690235.3,286046999.8,P
1513690255.2,286047001.8,P
1513690275.0,286047001.9,N
1513690275.9,286047001.9,N
1513690295.8,286047002.3,N
1513690315.6,286047002.7,N
1513690335.4,286047002.8,N
1513690355.3,286047002.7,N
1513690375.1,286047000.6,N
1513690395.8,286046998.9,N
1513690415.7,286046998.8,N
1513690435.5,286046998.3,N
1513690455.4,286046999.0,N
1513690475.2,286046998.9,N
1513690495.0,286047001.1,N
1513690495.9,286047001.1,N
1513690515.8,286046998.2,N
1513690535.6,286047001.2,N
1513690555.4,286046998.4,N
1513690575.3,286047001.2,N
1513690595.1,286047001.9,N
1513690615.9,286047000.0,N
1513690635.7,286046998.4,N
1513690655.5,286047001.1,N
1513690675.4,286047000.2,N
1513690695.2,286047000.3,N
1513690715.1,286046999.9,N
1513690716.0,286046999.9,N
1513690735.8,286047002.0,N
1513690755.6,286047001.7,N
1513690775.5,286047001.6,N
1513690795.3,286047004.3,N
1513690815.2,286047000.1,N
1513690835.9,286047000.4,N
1513690855.7,286047000.9,N
1513690875.6,286047000.7,N
1513690895.4,286047000.6,N
1513690915.2,286047000.9,N
1513690935.1,286047000.6,N
1513690936.0,286047000.6,N
1513690955.8,286047001.0,N
1513690975.7,286046998.6,N
1513690995.5,286047000.8,N
1513691015.4,286046999.9,N
1513691035.2,286047000.8,N
1513691055.0,286046998.1,N
1513691055.9,286046998.1,N
1513691075.8,286047002.4,N
1513691095.6,286046999.8,N
1513691115.4,286047000.9,N
1513691135.3,286047000.8,N
1513691155.1,286046998.1,N
1513691175.9,286047000.8,N
1513691195.7,286047000.8,N
1513691215.5,286047001.2,N
1513691235.4,286047000.8,N
1513691255.2,286047000.9,N
1513691275.1,286047000.0,N
1513691276.0,286047000.0,N
1513691295.8,286047002.6,N
1513691315.6,286046999.8,N
1513691335.5,286047001.0,N
1513691355.3,286047000.0,N
1513691375.2,286047000.5,N
1513691395.9,286046999.7,N
1513691415.7,286046999.9,N
1513691435.6,286046998.3,N
1513691455.4,286046998.9,N
1513691475.3,286046998.7,N
1513691495.1,286046996.6,N
1513691496.0,286046996.6,N
1513691515.8,286046999.5,N
1513691535.7,286046998.7,N
1513691555.5,286046997.5,N
1513691575.4,286046997.4,N
1513691595.2,286046997.1,N
1513691615.0,286046997.4,N
1513691615.9,286046997.4,N
1513691635.8,286046997.2,N
1513691655.6,286046996.8,N
1513691675.5,286046997.2,N
1513691695.3,286046997.5,N
1513691715.1,286046995.0,Y
1513691735.9,286046999.1,P
1513691755.7,286046999.4,P
1513691775.5,286047000.8,P
1513691795.4,286047001.0,N
1513691815.2,286046998.9,N
1513691835.1,286046999.5,N
1513691836.0,286046999.5,N
1513691855.8,286046997.2,Y
1513691875.6,286046996.5,P
1513691895.5,286046998.5,N
1513691915.3,286046997.2,N
1513691935.1,286046997.8,N
1513691955.9,286046995.3,Y
1513691975.7,286046996.7,P
1513691995.6,286046997.0,P
